IRA106 OIMM-OIFM

Flight info

Callsign IRA106
Flight time 1h 30m
Altitude 32000
Route EMESA W162 DAPIN M318 TBS G663 ORSOK G202 LABOT
Aircraft B38M/M-SDE1FGHILORVWXY/HB1

Departure

Time 2026-05-09 12:54
Airport Mashhad International Airport (OIMM)

Arrival

Time 2026-05-09 14:24
Airport Isfahan Shahid Beheshti International Airport (OIFM)
Time Latitude Longitude Altitude Speed Heading
2026-05-09 12:34 36.23471 59.63649 3254 ft 0 kts 344°
2026-05-09 12:39 36.23471 59.63650 3254 ft 0 kts 344°
2026-05-09 12:45 36.23470 59.63647 3253 ft 1 kts 354°
2026-05-09 12:45 36.23464 59.63647 3254 ft 4 kts 35°
2026-05-09 12:45 36.23445 59.63635 3254 ft 4 kts 15°
2026-05-09 12:45 36.23420 59.63635 3254 ft 4 kts 334°
2026-05-09 12:46 36.23404 59.63650 3255 ft 1 kts 313°
2026-05-09 12:46 36.23402 59.63653 3255 ft 0 kts 313°
2026-05-09 12:48 36.23408 59.63645 3254 ft 2 kts 313°
2026-05-09 12:49 36.23421 59.63628 3254 ft 4 kts 313°
2026-05-09 12:49 36.23442 59.63601 3254 ft 5 kts 313°
2026-05-09 12:49 36.23470 59.63566 3255 ft 6 kts 321°
2026-05-09 12:49 36.23516 59.63565 3255 ft 8 kts 26°
2026-05-09 12:50 36.23572 59.63620 3251 ft 13 kts 43°
2026-05-09 12:50 36.23658 59.63698 3247 ft 15 kts
2026-05-09 12:50 36.23737 59.63643 3247 ft 13 kts 313°
2026-05-09 12:50 36.23805 59.63555 3245 ft 16 kts 314°
2026-05-09 12:51 36.23887 59.63449 3246 ft 18 kts 314°
2026-05-09 12:51 36.23978 59.63330 3242 ft 21 kts 314°
2026-05-09 12:51 36.24084 59.63193 3239 ft 23 kts 314°
2026-05-09 12:51 36.24199 59.63045 3233 ft 25 kts 314°
2026-05-09 12:52 36.24319 59.62890 3238 ft 25 kts 314°
2026-05-09 12:52 36.24436 59.62738 3243 ft 24 kts 314°
2026-05-09 12:52 36.24555 59.62623 3243 ft 19 kts 358°
2026-05-09 12:52 36.24694 59.62626 3243 ft 20 kts 15°
2026-05-09 12:53 36.24735 59.62682 3241 ft 2 kts 94°
2026-05-09 12:53 36.24704 59.62726 3239 ft 23 kts 133°
2026-05-09 12:53 36.24448 59.63065 3237 ft 86 kts 133°
2026-05-09 12:53 36.23894 59.63800 3247 ft 147 kts 132°
2026-05-09 12:54 36.23102 59.64883 3387 ft 189 kts 132°
2026-05-09 12:54 36.22119 59.66174 3709 ft 223 kts 135°
2026-05-09 12:54 36.20960 59.67548 4636 ft 234 kts 135°
2026-05-09 12:54 36.19761 59.69004 5340 ft 250 kts 134°
2026-05-09 12:55 36.18490 59.70566 6065 ft 261 kts 135°
2026-05-09 12:55 36.17191 59.72109 7041 ft 261 kts 143°
2026-05-09 12:55 36.15505 59.72882 7900 ft 262 kts 178°
2026-05-09 12:55 36.13746 59.72333 8759 ft 267 kts 210°
2026-05-09 12:56 36.12429 59.70708 9586 ft 274 kts 240°
2026-05-09 12:56 36.11982 59.68417 10418 ft 281 kts 271°
2026-05-09 12:56 36.12591 59.66082 11100 ft 300 kts 299°
2026-05-09 12:56 36.14160 59.64238 11442 ft 329 kts 328°
2026-05-09 12:57 36.16433 59.63432 11757 ft 356 kts 355°
2026-05-09 12:57 36.18949 59.63931 12030 ft 380 kts 17°
2026-05-09 12:57 36.21544 59.64782 12277 ft 393 kts
2026-05-09 12:57 36.24210 59.64288 12836 ft 387 kts 334°
2026-05-09 12:58 36.26386 59.62448 13509 ft 377 kts 308°
2026-05-09 12:58 36.27645 59.59675 14187 ft 368 kts 282°
2026-05-09 12:58 36.27785 59.56542 14654 ft 367 kts 256°
2026-05-09 12:58 36.26743 59.53716 15316 ft 362 kts 230°
2026-05-09 12:59 36.24780 59.51808 16015 ft 362 kts 207°
2026-05-09 12:59 36.22492 59.50462 16553 ft 366 kts 211°
2026-05-09 12:59 36.20285 59.48891 17153 ft 366 kts 212°
2026-05-09 12:59 36.18221 59.47055 17834 ft 364 kts 219°
2026-05-09 13:00 36.16276 59.45045 18422 ft 366 kts 221°
2026-05-09 13:00 36.14609 59.42645 18875 ft 370 kts 232°
2026-05-09 13:00 36.13133 59.40020 19340 ft 374 kts 234°
2026-05-09 13:00 36.11753 59.37284 19769 ft 377 kts 237°
2026-05-09 13:01 36.10431 59.34445 20075 ft 383 kts 238°
2026-05-09 13:01 36.09151 59.31561 20661 ft 383 kts 239°
2026-05-09 13:01 36.07898 59.28675 21017 ft 388 kts 239°
2026-05-09 13:01 36.06634 59.25722 21474 ft 390 kts 240°
2026-05-09 13:02 36.05368 59.22739 21908 ft 393 kts 240°
2026-05-09 13:02 36.04094 59.19736 22342 ft 396 kts 240°
2026-05-09 13:02 36.02811 59.16714 22767 ft 398 kts 240°
2026-05-09 13:02 36.01520 59.13675 23156 ft 401 kts 240°
2026-05-09 13:03 36.00219 59.10614 23559 ft 404 kts 240°
2026-05-09 13:03 35.98915 59.07550 23902 ft 405 kts 240°
2026-05-09 13:03 35.97607 59.04481 24365 ft 404 kts 240°
2026-05-09 13:03 35.96296 59.01407 24742 ft 404 kts 240°
2026-05-09 13:04 35.94990 58.98347 25232 ft 403 kts 240°
2026-05-09 13:04 35.93679 58.95279 25531 ft 406 kts 240°
2026-05-09 13:04 35.92359 58.92192 25871 ft 408 kts 240°
2026-05-09 13:04 35.91029 58.89084 26200 ft 410 kts 240°
2026-05-09 13:05 35.89695 58.85970 26545 ft 412 kts 240°
2026-05-09 13:05 35.88358 58.82852 26980 ft 411 kts 240°
2026-05-09 13:05 35.87025 58.79746 27407 ft 410 kts 240°
2026-05-09 13:05 35.85693 58.76646 27863 ft 409 kts 240°
2026-05-09 13:06 35.84365 58.73557 28315 ft 408 kts 239°
2026-05-09 13:06 35.83038 58.70474 28771 ft 406 kts 239°
2026-05-09 13:06 35.81715 58.67403 29227 ft 405 kts 239°
2026-05-09 13:06 35.80393 58.64339 29699 ft 404 kts 239°
2026-05-09 13:07 35.79079 58.61291 30164 ft 403 kts 239°
2026-05-09 13:07 35.77765 58.58257 30593 ft 400 kts 238°
2026-05-09 13:07 35.76111 58.55552 31041 ft 394 kts 224°
2026-05-09 13:07 35.74091 58.53304 31517 ft 390 kts 223°
2026-05-09 13:08 35.72080 58.51064 31915 ft 389 kts 223°
2026-05-09 13:08 35.68047 58.46680 32031 ft 387 kts 221°
2026-05-09 13:09 35.64004 58.42358 32062 ft 385 kts 221°
2026-05-09 13:09 35.59952 58.38042 32024 ft 385 kts 221°
2026-05-09 13:10 35.55918 58.33749 31966 ft 386 kts 221°
2026-05-09 13:10 35.51854 58.29433 31981 ft 386 kts 221°
2026-05-09 13:11 35.47767 58.25099 31963 ft 385 kts 221°
2026-05-09 13:11 35.43744 58.20838 31947 ft 387 kts 221°
2026-05-09 13:12 35.39703 58.16564 31963 ft 381 kts 221°
2026-05-09 13:12 35.35693 58.12332 31930 ft 380 kts 221°
2026-05-09 13:13 35.31687 58.08104 31939 ft 380 kts 221°
2026-05-09 13:13 35.27677 58.03880 31919 ft 380 kts 221°
2026-05-09 13:14 35.23661 57.99655 31882 ft 382 kts 221°
2026-05-09 13:16 35.07585 57.82799 31883 ft 379 kts 221°
2026-05-09 13:16 35.03583 57.78615 31876 ft 379 kts 221°
2026-05-09 13:17 34.99582 57.74437 31877 ft 379 kts 221°
2026-05-09 13:17 34.95575 57.70260 31879 ft 379 kts 220°
2026-05-09 13:18 34.91564 57.66082 31860 ft 380 kts 221°
2026-05-09 13:18 34.87547 57.61905 31887 ft 378 kts 221°
2026-05-09 13:19 34.83548 57.57752 31877 ft 378 kts 221°
2026-05-09 13:19 34.79543 57.53598 31879 ft 378 kts 221°
2026-05-09 13:20 34.75538 57.49450 31885 ft 378 kts 221°
2026-05-09 13:20 34.71533 57.45306 31884 ft 378 kts 221°
2026-05-09 13:21 34.67523 57.41164 31890 ft 378 kts 221°
2026-05-09 13:21 34.63513 57.37027 31896 ft 378 kts 221°
2026-05-09 13:22 34.59529 57.32921 31887 ft 380 kts 221°
2026-05-09 13:22 34.55497 57.28773 31883 ft 380 kts 221°
2026-05-09 13:23 34.45416 57.18423 31881 ft 380 kts 221°
2026-05-09 13:24 34.41384 57.14293 31872 ft 380 kts 221°
2026-05-09 13:24 34.37350 57.10164 31888 ft 380 kts 222°
2026-05-09 13:25 34.32845 57.06864 31871 ft 389 kts 200°
2026-05-09 13:26 34.24896 57.04543 31866 ft 393 kts 199°
2026-05-09 13:26 34.19570 57.03093 31872 ft 393 kts 199°
2026-05-09 13:27 34.14235 57.01664 31882 ft 393 kts 199°
2026-05-09 13:27 34.08901 57.00240 31886 ft 392 kts 198°
2026-05-09 13:28 34.03564 56.98818 31886 ft 392 kts 198°
2026-05-09 13:28 33.98232 56.97399 31889 ft 393 kts 198°
2026-05-09 13:29 33.92912 56.95985 31898 ft 390 kts 199°
2026-05-09 13:29 33.87577 56.94569 31881 ft 393 kts 198°
2026-05-09 13:30 33.82243 56.93153 31860 ft 393 kts 199°
2026-05-09 13:30 33.76873 56.91734 31843 ft 395 kts 198°
2026-05-09 13:31 33.71517 56.90317 31886 ft 394 kts 198°
2026-05-09 13:31 33.68938 56.89356 31871 ft 385 kts 211°
2026-05-09 13:31 33.66767 56.87563 31870 ft 379 kts 225°
2026-05-09 13:32 33.63271 56.82880 31844 ft 381 kts 230°
2026-05-09 13:32 33.58242 56.75459 31863 ft 382 kts 231°
2026-05-09 13:33 33.54940 56.70471 31870 ft 382 kts 231°
2026-05-09 13:33 33.51637 56.65470 31867 ft 383 kts 231°
2026-05-09 13:34 33.48887 56.61309 31874 ft 383 kts 231°
2026-05-09 13:34 33.45575 56.56310 31893 ft 383 kts 231°
2026-05-09 13:35 33.42277 56.51337 31889 ft 380 kts 231°
2026-05-09 13:35 33.38988 56.46385 31899 ft 380 kts 231°
2026-05-09 13:36 33.35688 56.41424 31906 ft 382 kts 231°
2026-05-09 13:36 33.32385 56.36465 31903 ft 381 kts 231°
2026-05-09 13:37 33.29080 56.31507 31910 ft 381 kts 231°
2026-05-09 13:37 33.25781 56.26561 31917 ft 379 kts 231°
2026-05-09 13:38 33.22495 56.21642 31918 ft 379 kts 231°
2026-05-09 13:38 33.19205 56.16724 31906 ft 379 kts 231°
2026-05-09 13:39 33.15915 56.11812 31916 ft 379 kts 231°
2026-05-09 13:39 33.12623 56.06901 31887 ft 379 kts 231°
2026-05-09 13:40 33.09326 56.01992 31913 ft 379 kts 231°
2026-05-09 13:40 33.06026 55.97085 31911 ft 379 kts 231°
2026-05-09 13:41 33.02725 55.92183 31908 ft 379 kts 231°
2026-05-09 13:41 32.99423 55.87285 31916 ft 379 kts 231°
2026-05-09 13:42 32.96121 55.82394 31925 ft 379 kts 231°
2026-05-09 13:42 32.92918 55.77411 31913 ft 380 kts 240°
2026-05-09 13:43 32.92019 55.74455 31937 ft 386 kts 255°
2026-05-09 13:43 32.91740 55.71246 31937 ft 392 kts 260°
2026-05-09 13:43 32.91424 55.64743 31941 ft 395 kts 261°
2026-05-09 13:44 32.91190 55.58217 31918 ft 394 kts 262°
2026-05-09 13:44 32.90979 55.51681 31975 ft 396 kts 261°
2026-05-09 13:45 32.90770 55.45134 31945 ft 396 kts 261°
2026-05-09 13:45 32.90562 55.38707 31945 ft 381 kts 261°
2026-05-09 13:46 32.90355 55.32435 31515 ft 379 kts 261°
2026-05-09 13:46 32.90250 55.29289 31266 ft 383 kts 261°
2026-05-09 13:46 32.90145 55.26153 31054 ft 385 kts 261°
2026-05-09 13:47 32.90038 55.22964 30871 ft 387 kts 261°
2026-05-09 13:47 32.89928 55.19761 30675 ft 388 kts 261°
2026-05-09 13:47 32.89816 55.16502 30469 ft 389 kts 261°
2026-05-09 13:47 32.89707 55.13332 30257 ft 381 kts 261°
2026-05-09 13:48 32.89598 55.10205 30047 ft 377 kts 261°
2026-05-09 13:48 32.89489 55.07101 29807 ft 375 kts 261°
2026-05-09 13:48 32.89380 55.04007 29565 ft 373 kts 261°
2026-05-09 13:48 32.89272 55.00965 29322 ft 372 kts 261°
2026-05-09 13:49 32.89166 54.97895 29102 ft 371 kts 261°
2026-05-09 13:49 32.89062 54.94838 28859 ft 369 kts 261°
2026-05-09 13:49 32.88958 54.91789 28631 ft 368 kts 261°
2026-05-09 13:49 32.88854 54.88749 28398 ft 368 kts 261°
2026-05-09 13:50 32.88749 54.85713 28164 ft 367 kts 261°
2026-05-09 13:50 32.88644 54.82686 27932 ft 366 kts 261°
2026-05-09 13:50 32.88539 54.79669 27701 ft 365 kts 261°
2026-05-09 13:50 32.88433 54.76658 27479 ft 364 kts 261°
2026-05-09 13:51 32.88327 54.73657 27274 ft 363 kts 261°
2026-05-09 13:51 32.88219 54.70662 27051 ft 362 kts 262°
2026-05-09 13:51 32.88112 54.67676 26827 ft 361 kts 262°
2026-05-09 13:51 32.88004 54.64700 26611 ft 360 kts 262°
2026-05-09 13:52 32.87896 54.61732 26392 ft 359 kts 262°
2026-05-09 13:52 32.87787 54.58766 26177 ft 358 kts 262°
2026-05-09 13:52 32.87678 54.55807 25968 ft 358 kts 262°
2026-05-09 13:52 32.87569 54.52854 25761 ft 357 kts 262°
2026-05-09 13:53 32.87459 54.49903 25549 ft 357 kts 262°
2026-05-09 13:53 32.87350 54.46961 25354 ft 356 kts 263°
2026-05-09 13:53 32.87241 54.44020 25153 ft 355 kts 263°
2026-05-09 13:53 32.87132 54.41094 24945 ft 354 kts 263°
2026-05-09 13:54 32.87023 54.38172 24731 ft 353 kts 263°
2026-05-09 13:54 32.86913 54.35257 24525 ft 352 kts 264°
2026-05-09 13:54 32.86803 54.32353 24330 ft 351 kts 264°
2026-05-09 13:54 32.86692 54.29451 24128 ft 350 kts 264°
2026-05-09 13:55 32.86581 54.26560 23921 ft 350 kts 264°
2026-05-09 13:55 32.86469 54.23671 23727 ft 349 kts 264°
2026-05-09 13:55 32.86357 54.20788 23524 ft 349 kts 264°
2026-05-09 13:55 32.86244 54.17901 23286 ft 349 kts 264°
2026-05-09 13:56 32.86132 54.15027 23049 ft 348 kts 264°
2026-05-09 13:56 32.86018 54.12159 22813 ft 346 kts 264°
2026-05-09 13:56 32.85904 54.09300 22573 ft 345 kts 264°
2026-05-09 13:56 32.85790 54.06450 22338 ft 344 kts 264°
2026-05-09 13:57 32.85676 54.03613 22108 ft 343 kts 264°
2026-05-09 13:57 32.85559 54.00776 21875 ft 343 kts 264°
2026-05-09 13:57 32.85443 53.97955 21670 ft 341 kts 265°
2026-05-09 13:57 32.85327 53.95155 21438 ft 338 kts 265°
2026-05-09 13:58 32.85211 53.92375 21228 ft 336 kts 265°
2026-05-09 13:58 32.85095 53.89598 21058 ft 336 kts 265°
2026-05-09 13:58 32.84978 53.86831 20870 ft 335 kts 265°
2026-05-09 13:58 32.84861 53.84067 20701 ft 334 kts 265°
2026-05-09 13:59 32.84744 53.81305 20519 ft 334 kts 265°
2026-05-09 13:59 32.84626 53.78555 20355 ft 333 kts 265°
2026-05-09 13:59 32.84507 53.75794 20178 ft 335 kts 265°
2026-05-09 13:59 32.84389 53.73069 20002 ft 335 kts 265°
2026-05-09 14:00 32.84269 53.70295 19814 ft 337 kts 265°
2026-05-09 14:00 32.84228 53.69359 19757 ft 337 kts 265°
2026-05-09 14:00 32.84026 53.64750 19466 ft 336 kts 265°
2026-05-09 14:00 32.83904 53.61979 19292 ft 336 kts 265°
2026-05-09 14:01 32.83781 53.59205 19119 ft 336 kts 265°
2026-05-09 14:01 32.83658 53.56432 18946 ft 335 kts 265°
2026-05-09 14:01 32.83534 53.53667 18780 ft 335 kts 265°
2026-05-09 14:01 32.83410 53.50902 18607 ft 335 kts 265°
2026-05-09 14:02 32.83285 53.48138 18438 ft 335 kts 265°
2026-05-09 14:02 32.83159 53.45378 18257 ft 334 kts 265°
2026-05-09 14:02 32.83034 53.42621 18086 ft 334 kts 266°
2026-05-09 14:02 32.82907 53.39866 17889 ft 333 kts 265°
2026-05-09 14:03 32.82781 53.37121 17696 ft 332 kts 265°
2026-05-09 14:03 32.82654 53.34379 17514 ft 332 kts 266°
2026-05-09 14:03 32.82527 53.31644 17328 ft 331 kts 265°
2026-05-09 14:03 32.82399 53.28919 17130 ft 330 kts 266°
2026-05-09 14:04 32.82271 53.26197 16940 ft 329 kts 266°
2026-05-09 14:04 32.82143 53.23480 16764 ft 329 kts 266°
2026-05-09 14:04 32.82015 53.20765 16573 ft 329 kts 266°
2026-05-09 14:04 32.81886 53.18058 16384 ft 328 kts 266°
2026-05-09 14:05 32.81756 53.15357 16219 ft 327 kts 266°
2026-05-09 14:05 32.81627 53.12666 16039 ft 326 kts 266°
2026-05-09 14:05 32.81498 53.09984 15852 ft 324 kts 266°
2026-05-09 14:05 32.81369 53.07318 15669 ft 324 kts 266°
2026-05-09 14:06 32.81240 53.04656 15508 ft 322 kts 266°
2026-05-09 14:06 32.81118 53.01992 15330 ft 323 kts 268°
2026-05-09 14:06 32.81070 52.99351 15147 ft 316 kts 268°
2026-05-09 14:06 32.81023 52.96771 14975 ft 308 kts 268°
2026-05-09 14:07 32.80974 52.94255 14827 ft 300 kts 268°
2026-05-09 14:07 32.80924 52.91806 14657 ft 293 kts 268°
2026-05-09 14:07 32.80875 52.89413 14490 ft 287 kts 268°
2026-05-09 14:07 32.80826 52.87062 14311 ft 283 kts 268°
2026-05-09 14:08 32.80777 52.84736 14139 ft 282 kts 268°
2026-05-09 14:08 32.80729 52.82443 13979 ft 281 kts 268°
2026-05-09 14:08 32.80679 52.80122 13790 ft 280 kts 267°
2026-05-09 14:08 32.80629 52.77812 13594 ft 280 kts 268°
2026-05-09 14:09 32.80578 52.75514 13400 ft 279 kts 267°
2026-05-09 14:09 32.80528 52.73222 13241 ft 275 kts 267°
2026-05-09 14:09 32.80479 52.70975 13046 ft 270 kts 267°
2026-05-09 14:09 32.80430 52.68769 12848 ft 264 kts 267°
2026-05-09 14:10 32.80334 52.64511 12468 ft 254 kts 268°
2026-05-09 14:10 32.80286 52.62429 12285 ft 251 kts 267°
2026-05-09 14:10 32.80239 52.60367 12133 ft 246 kts 267°
2026-05-09 14:11 32.80194 52.58370 12022 ft 237 kts 267°
2026-05-09 14:11 32.80149 52.56445 11840 ft 228 kts 267°
2026-05-09 14:11 32.80105 52.54603 11651 ft 218 kts 267°
2026-05-09 14:11 32.80064 52.52835 11465 ft 209 kts 267°
2026-05-09 14:12 32.80024 52.51143 11277 ft 200 kts 267°
2026-05-09 14:12 32.79985 52.49522 11092 ft 193 kts 267°
2026-05-09 14:12 32.79948 52.47959 10901 ft 186 kts 268°
2026-05-09 14:12 32.79911 52.46445 10722 ft 182 kts 267°
2026-05-09 14:13 32.79875 52.44949 10551 ft 181 kts 268°
2026-05-09 14:14 32.79623 52.34767 9485 ft 170 kts 266°
2026-05-09 14:15 32.79587 52.33348 9363 ft 172 kts 266°
2026-05-09 14:15 32.79552 52.31928 9216 ft 171 kts 265°
2026-05-09 14:15 32.79516 52.30522 9044 ft 171 kts 266°
2026-05-09 14:15 32.79479 52.29123 8887 ft 172 kts 267°
2026-05-09 14:16 32.79445 52.27719 8757 ft 166 kts 265°
2026-05-09 14:16 32.79410 52.26349 8600 ft 161 kts 266°
2026-05-09 14:16 32.79376 52.25055 8433 ft 158 kts 265°
2026-05-09 14:16 32.79341 52.23738 8325 ft 161 kts 265°
2026-05-09 14:17 32.79307 52.22414 8211 ft 160 kts 266°
2026-05-09 14:17 32.79272 52.21091 8063 ft 160 kts 265°
2026-05-09 14:17 32.79238 52.19778 7940 ft 157 kts 265°
2026-05-09 14:17 32.79204 52.18486 7767 ft 157 kts 265°
2026-05-09 14:18 32.79169 52.17190 7614 ft 158 kts 265°
2026-05-09 14:18 32.79135 52.15884 7498 ft 158 kts 265°
2026-05-09 14:18 32.79100 52.14575 7358 ft 158 kts 264°
2026-05-09 14:18 32.79066 52.13281 7226 ft 156 kts 266°
2026-05-09 14:19 32.79032 52.11992 7073 ft 155 kts 266°
2026-05-09 14:19 32.78997 52.10721 6997 ft 154 kts 265°
2026-05-09 14:19 32.78963 52.09449 6995 ft 153 kts 266°
2026-05-09 14:19 32.78933 52.08191 7007 ft 152 kts 266°
2026-05-09 14:20 32.78924 52.06925 6949 ft 155 kts 262°
2026-05-09 14:20 32.78785 52.05652 6968 ft 156 kts 257°
2026-05-09 14:20 32.78580 52.04395 6986 ft 154 kts 256°
2026-05-09 14:21 32.78222 52.02396 7012 ft 142 kts 257°
2026-05-09 14:21 32.78022 52.01278 6878 ft 135 kts 256°
2026-05-09 14:21 32.77829 52.00204 6751 ft 132 kts 256°
2026-05-09 14:21 32.77637 51.99140 6626 ft 131 kts 255°
2026-05-09 14:22 32.77445 51.98074 6466 ft 133 kts 255°
2026-05-09 14:22 32.77249 51.96982 6359 ft 136 kts 257°
2026-05-09 14:22 32.77052 51.95883 6202 ft 135 kts 257°
2026-05-09 14:22 32.76855 51.94794 6034 ft 135 kts 257°
2026-05-09 14:23 32.76655 51.93681 5853 ft 141 kts 258°
2026-05-09 14:23 32.76439 51.92510 5688 ft 149 kts 263°
2026-05-09 14:23 32.76226 51.91276 5556 ft 155 kts 262°
2026-05-09 14:23 32.75988 51.90010 5334 ft 156 kts 269°
2026-05-09 14:24 32.75773 51.88737 5155 ft 159 kts 268°
2026-05-09 14:24 32.75528 51.87456 5088 ft 156 kts 267°
2026-05-09 14:24 32.75334 51.86308 5058 ft 117 kts 258°
2026-05-09 14:24 32.75228 51.85784 5054 ft 42 kts 251°
2026-05-09 14:25 32.75035 51.85519 5054 ft 35 kts 214°
2026-05-09 14:25 32.74942 51.85457 5060 ft 13 kts 210°
2026-05-09 14:25 32.74864 51.85408 5057 ft 11 kts 195°
2026-05-09 14:25 32.74806 51.85425 5055 ft 10 kts 158°
2026-05-09 14:26 32.74773 51.85511 5058 ft 16 kts 75°
2026-05-09 14:26 32.74808 51.85693 5061 ft 29 kts 76°
2026-05-09 14:26 32.74861 51.85975 5057 ft 40 kts 77°
2026-05-09 14:26 32.74922 51.86342 5060 ft 51 kts 78°
2026-05-09 14:27 32.75006 51.86788 5052 ft 57 kts 77°
2026-05-09 14:27 32.74985 51.87136 5058 ft 31 kts 147°
2026-05-09 14:27 32.74773 51.87205 5057 ft 31 kts 153°
2026-05-09 14:27 32.74749 51.87325 5048 ft 14 kts 76°
2026-05-09 14:28 32.74772 51.87439 5050 ft 14 kts 77°
2026-05-09 14:28 32.74773 51.87475 5056 ft 1 kts 108°
2026-05-09 14:28 32.74769 51.87485 5046 ft 1 kts 125°
2026-05-09 14:28 32.74736 51.87509 5052 ft 9 kts 163°
2026-05-09 14:29 32.74693 51.87525 5049 ft 0 kts 162°
2026-05-09 14:29 32.74691 51.87526 5049 ft 0 kts 162°